Orbital Elements
Epoch 2007 Mar. 1.0 TT = JDT 2454160.5
T 2007 Feb. 9.96131 TT MPC
q 2.1022092 (2000.0) P Q
n 0.14247058 Peri. 41.31178 -0.48834907 -0.85884772
a 3.6306628 Node 78.45364 +0.75348476 -0.50435227
e 0.4209847 Incl. 9.07780 +0.44019984 -0.08949512
P 6.92
From 86 observations 2006 Nov. 15-2013 Sept. 15, mean residual 0".5.
|